Tracking 27380 objects as of 6-Jun-2023
HD Live streaming from Space Station
objects crossing your sky now

OPS 4682 DEB

Track OPS 4682 DEB now!
10-day predictions


NORAD ID: 38409
Int'l Code: 1965-027DN
Perigee: 1,240.6 km
Apogee: 1,310.0 km
Inclination: 90.3 °
Period: 110.9 minutes
Semi major axis: 7646 km
RCS: 0.0099 m2 (small)
Launch date: April 3, 1965
Source: United States (US)
Launch site: AIR FORCE WESTERN TEST RANGE (AFWTR)

Note: This is SATELLITE DEBRIS
Your satellite tracking list
Your tracking list is empty




NASA's NSSDC Master Catalog

Two Line Element Set (TLE):
1 38409U 65027DN  23155.55974168  .00001134  00000-0  38116-2 0  9995
2 38409  90.2643 359.0339 0045404  41.8107 318.6469 12.98447876 44304
Source of the keplerian elements: AFSPC